Location: York
(31.8935°S, 116.7682°E)
Time: 06:02:38
(UTC+08:00)

X-37B - Pass Details

Date: 17 May 2021
Orbit: 386 x 389 km, 45.0° (Epoch: 10 June)

Event Time Altitude Azimuth Distance (km) Brightness Sun altitude
Exits shadow 06:10:52 - 207° (SSW) 1,716 3.4 -9.8°
Reaches altitude 10° 06:12:08 10° 190° (S) 1,435 3.2 -9.5°
Maximum altitude 06:13:30 12° 164° (SSE) 1,313 3.3 -9.2°
Drops below altitude 10° 06:14:53 10° 139° (SE) 1,433 3.8 -8.9°
Sets 06:18:00 0° 106° (ESE) 2,285 5.5 -8.3°
